Home   Weather   Kairouan   Past weeks

Flag for Tunisia Past Weather in Kairouan, Tunisia — Yesterday and Last 2 Weeks

Now
59 °F

Passing clouds.


Feels Like: 59 °F
Forecast: 54 / 64 °F
Wind: No wind

Location: Kairouan Airport

Current Time: Dec 4, 2016 at 11:26:18 pm

Latest Report: Dec 4, 2016 at 11:00 pm


Visibility: N/A

Pressure: 30.12 "Hg

Humidity: 59%

Dew Point: 45 °F

Location of KairouanLocation

Past Weather in Kairouan — Graph

°F

Kairouan Temperature Yesterday

Maximum temperature yesterday: 66 °F (at 3:00 pm)
Minimum temperature yesterday: 45 °F (at 6:00 am)
Average temperature yesterday: 53 °F

High & Low Weather Summary for the Past Weeks

 TemperatureHumidityPressure
High77 °F (Nov 22, 3:00 pm)88% (Nov 20, 5:00 am)30.42 "Hg (Nov 20, 5:00 am)
Low43 °F (Dec 1, 7:00 am)36% (Nov 22, 2:00 pm)29.74 "Hg (Nov 28, 2:00 pm)
Average59 °F65%30.03 "Hg
* Reported Nov 19 10:00 pm — Dec 4 10:00 pm, Kairouan, Weather by CustomWeather, © 2016

Note: Actual official high and low records may vary slightly from our data, if they occured in-between our weather recording intervals... More about our weather records

Advertising

Kairouan Weather History for the Previous 24 Hours

Scroll right to see more
 ConditionsComfort  
Time TempWeatherWind HumidityBarometerVisibility
10:00 pm
Sun, Dec 4
57 °FPassing clouds.No wind59%30.12 "HgN/A
9:00 pm59 °FPassing clouds.No wind51%30.09 "HgN/A
8:00 pm59 °FClear.No wind51%30.09 "Hg10 mi
7:00 pm63 °FClear.No wind49%30.09 "Hg10 mi
6:00 pm64 °FClear.No wind46%30.07 "Hg10 mi
5:00 pm68 °FSunny.No wind40%30.07 "Hg10 mi
4:00 pm72 °FSunny.No wind38%30.04 "Hg10 mi
3:00 pm72 °FSunny.No wind38%30.04 "Hg10 mi
2:00 pm70 °FSunny.2 mph40%30.07 "Hg10 mi
1:00 pm70 °FSunny.No wind40%30.07 "Hg10 mi
12:00 pm68 °FSunny.No wind46%30.09 "Hg10 mi
11:00 am63 °FSunny.No wind52%30.09 "Hg10 mi
10:00 am59 °FSunny.No wind59%30.09 "Hg10 mi
9:00 am52 °FPassing clouds.No wind72%30.09 "Hg5 mi
8:00 am46 °FPassing clouds.No wind82%30.09 "Hg5 mi
7:00 am46 °FClear.No wind76%30.07 "Hg5 mi
6:00 am48 °FPassing clouds.No wind76%30.07 "Hg5 mi
5:00 am48 °FPassing clouds.No wind76%30.04 "Hg5 mi
4:00 am50 °FPassing clouds.No wind76%30.04 "Hg5 mi
3:00 am50 °FCool.No wind76%30.07 "HgN/A
2:00 am48 °FPassing clouds.No wind82%30.07 "Hg5 mi
1:00 am52 °FPassing clouds.No wind72%30.04 "Hg5 mi
12:00 am52 °FPassing clouds.No wind72%30.07 "Hg5 mi
11:00 pm
Sat, Dec 3
52 °FPassing clouds.No wind72%30.04 "Hg5 mi
Weather by CustomWeather, © 2016

See weather overviewHow to use our weather pages